Погода в Норильске

Погода в Норильске : погода сейчас, прогноз погоды и архив. Всё, что Вы хотите узнать о погоде в Норильске!

Поиск расширенной информации на нашем сайте:

Другие новости

Новости СМИ2

Главная страница сайта

Новости сайта

03.07.2017

Напоминаем, что на нашем специализированном сайте Метеоцентр.Азия вы можете получить высокодетализированные автоматические прогнозы погоды по пунктам России, СНГ и мира в авиационном формате (включающие направление и скорость ветра, видимость, явления погоды, количество и форму облачности, нижнюю и верхнюю границу облачности).


Погода в Норильске - сегодня

Время (UTC), дата Ветер
(°,м/с) 
Видим.   Явления Облачность Т
(°С)
Тd
(°С)
f(%) Тe
(°С)
Pmin
(гПа)
dP
(гПа)
Po
(мм)
O2
(г/м3)
Тmin Tmax R s Состояние
почвы
03 15.04.18 120 (ЮВ) 2000 м  снег  10/10 2000 м 
[Ns]
-12.4 -15.1 80 -16  991.8  738  313           
06 15.04.18 120 (ЮВ) 4000 м  слаб. снег  10/10 2000 м 
[Ns]
-11.2 -14 80 -17  991.2  -0.5  737  311           
12 15.04.18 110 (В) 5{10}  4000 м  слаб. снег  9/9 2000 м средняя 
[As op]
-8.5 -10.9 83 -13  992.4  0.4  738  308    -6.8  0.6     
15 15.04.18 100 (В) 2000 м  слаб. крупа{ливн. осадки, дождь}  10/10 300 м кучево-дожд. 
[Cb cap]
-9.6 -11.7 85 -14  992.3  738  309           
18 15.04.18 130 (ЮВ) 4000 м  слаб. снег{ливн. осадки}  10/4 600 м средняя 
[Sc|Ac As]
-10.4 -13.2 80 -14  991.8  -0.6  738  310           
21 15.04.18 160 (Ю) 4000 м  слаб. снег  10/10 2000 м 
[Ac As]
-11 -13 85 -15  991.3  -0.5  737  311           
00 16.04.18 150 (ЮВ) 4000 м  слаб. снег  10/4 2000 м средняя, верхняя 
[Ac trans|Cs]
-10.4 -12.3 86 -13  991.5  0.2  737  310  -11.5    70  неравномерный
сухой снег
100% 
03 16.04.18 140 (ЮВ) 4000 м  слаб. снег  10/4 2000 м средняя, верхняя 
[Ac trans|Cs]
-9.3 -12.3 79 -13  992.1  0.7  738  309           
06 16.04.18 310 (СЗ) 10 км  {снег}  10/3 1000 м верхняя 
[Cu hum|Cs]
-11.4 -14.9 75 -15  993.5  1.2  739  312           
09 16.04.18 320 (СЗ) 20000 м    3/0 верхняя 
[Ci fib]
-11.8 -15.3 75 -14  995.6  2.1  740  313           
12 16.04.18 300 (СЗ) 20000 м    10/4 600 м верхняя 
[Sc|Cs]
-13.3 -16.8 75 -18  997.3  1.7  742  316    -8.3  0.0     
15 16.04.18 310 (СЗ) 10 км    10/3 2000 м средняя, верхняя 
[Ac lent|Cs]
-15.2 -17.9 80 -21  995.7  1.3  743  318           
00 17.04.18 290 (З) 6{10}  10 км  позёмок  6/3 2000 м средняя, верхняя 
[Ac trans|Cs]
-19.8 -23.1 75 -27  1001.1  744  325  -20.1      74  неравномерный
сухой снег
100% 
06 17.04.18 310 (СЗ) 10 км  позёмок  6/0 верхняя 
[Cs]
-16.8 -20.2 75 -23  1003  1.1  746  322           
09 17.04.18 290 (З) 20000 м  позёмок  4/0 верхняя 
[Ci fib]
-15.3 -18.7 75 -21  1004.3  1.2  747  320           
12 17.04.18 300 (СЗ) 7-10{10}  20000 м  позёмок  4/0 верхняя 
[Ci fib]
-17 -20.4 75 -24  1005.5  1.1  748  323    -15.4       
15 17.04.18 270 (З) 20000 м  позёмок  3/0 верхняя 
[Ci fib]
-17.8 -21.2 75 -25  1005.5  748  324           
18 17.04.18 280 (З) 20000 м  позёмок  ясно 
-18.7 -22 75 -25  1005.4  -0.1  748  325           
00 18.04.18 290 (З) 4{10}  20000 м    10/4 2000 м средняя, верхняя 
[Ac trans|Cs]
-19.2 -22.5 75 -25  1005.9  0.2  748  326  -20.2      73  неравномерный
сухой снег
100% 
03 18.04.18 340 (С) 20000 м    8/0 верхняя 
[Cs]
-19.8 -23.1 75 -25  1006.7  0.7  748  327           
06 18.04.18 340 (С) 20000 м    8/0 верхняя 
[Cs]
-18.8 -22.1 75 -23  1007.6  749  326           
09 18.04.18 120 (ЮВ) 20000 м    6/0 верхняя 
[Cs]
-17.3 -21.5 70 -21  1008  0.4  749  324           
12 18.04.18 130 (ЮВ) 20000 м    6/0 верхняя 
[Cs]
-16.9 -20.3 75 -22  1009.5  1.5  751  324    -16.3       
15 18.04.18 100 (В) 20000 м    9/9 2000 м средняя 
[Ac lent]
-18.8 -22.9 70 -24  1009.7  0.2  751  327           
00 19.04.18 130 (ЮВ) 9-14{14}  2000 м  слаб. снег  10/8 600 м средняя 
[Sc|Ac As]
-15 -18.4 75 -23  1006  -1.2  748  320  -19    0.0  73  неравномерный
сухой снег
100% 
Время (UTC), дата Ветер
(°,м/с) 
Видим.   Явления Облачность Т
(°С)
Тd
(°С)
f(%) Тe
(°С)
Pmin
(гПа)
dP
(гПа)
Po
(мм)
O2
(г/м3)
Тmin Tmax R s Состояние
почвы

Для получения пояснительной информации подведите курсор к названию столбца.

ПОГОДА в Норильске - архив

Всё, что Вы хотите узнать о погоде в Норильске - удобно и подробно!

Выберите нужную дату (начиная с 1 января 2015* года) и нажмите кнопку "Найти".
Будут отображены архивные сводки погоды по пункту Норильск, начиная с указанной даты.


Отображать данные в формате CSV (для использования в таблицах Excel)


Внимание! Наш архив погоды предназначен исключительно для личного некоммерческого использования в познавательных целях. Если Вам необходимы официальные справки о состоянии погоды (для производственных, юридических, коммерческих и т.п. целей), обращайтесь в органы Росгидромета.

*Примечание: данная дата относится к архиву по метеостанциям СССР (Россия, СНГ, Балтия).
Архив по метеостанциям Зарубежной Европы и Азии (кроме Китая) хранится 10 дней, по другим регионам земного шара (Китай, Африка, Америка, Австралия, Океания) - 1 день.

Норильск - район местоположения метеостанции


Название, широта, долгота, высота метеостанции:
Норильск (Алыкель) 69.3°ш. 87.2°д. 175 м над ур. моря [Российская Федерация]

Дополнительная информация

В oтличие oт бoльшинства пoгoдных сайтoв мы публикуем пoдрoбную метеoинфoрмацию в детальнoм прoфессиoнальнoм фoрмате.

Характеристики температуры и влажнoсти вoздуха измеряются на высoте 2 м в тени вдали oт зданий и деревьев.
Скoрoсть ветра измеряется на высoте 10 м (на урoвне рoста челoвека скoрoсть ветра ниже в 1.5-2 раза). Если метеoстанция нахoдится в гoрoде или в лесу, тo скoрoсть ветра занижена на 2-4 м/с пo сравнению с oткрытым местoм. Скoрoсть ветра над акватoриями крупных рек и oзёр, а также на вершинах хoлмoв на 2-5 м/с выше, чем в oбычных услoвиях.
Атмoсфернoе давление в разных тoчках местнoсти мoжет значительнo oтличаться oт давления на метеoстанции, в зависимoсти oт услoвий рельефа (при пoдъёме на 10 м давление пoнижается примернo на 1 мм рт.ст.).